Time,TemperatureF,DewpointF,PressureIn,WindDirection,WindDirectionDegrees,WindSpeedMPH,WindSpeedGustMPH,Humidity,HourlyPrecipIn,Conditions,Clouds,dailyrainin,SoftwareType,DateUTC
2013-03-15 00:01:00,47.0,46.0,30.12,SSE,152,4.0,10.0,96,-99.99,,,-99.99,,2013-03-15 07:01:00,
2013-03-15 00:11:00,47.0,46.0,30.12,SSE,152,4.0,10.0,96,-99.99,,,-99.99,,2013-03-15 07:11:00,
2013-03-15 00:21:00,47.0,46.0,30.12,SSE,152,3.0,10.0,96,-99.99,,,-99.99,,2013-03-15 07:21:00,
2013-03-15 00:32:00,48.0,47.0,30.12,SSE,157,8.0,12.0,96,-99.99,,,-99.99,,2013-03-15 07:32:00,
2013-03-15 00:42:00,48.0,47.0,30.12,SSE,157,8.0,12.0,96,-99.99,,,-99.99,,2013-03-15 07:42:00,
2013-03-15 00:52:00,48.0,47.0,30.12,SSE,156,4.0,14.0,96,-99.99,,,-99.99,,2013-03-15 07:52:00,
2013-03-15 01:01:00,48.0,47.0,30.12,SSE,164,3.0,13.0,96,-99.99,,,-99.99,,2013-03-15 08:01:00,
2013-03-15 01:11:00,48.0,47.0,30.12,SSE,164,3.0,13.0,96,-99.99,,,-99.99,,2013-03-15 08:11:00,
2013-03-15 01:22:00,48.0,47.0,30.13,SSE,158,4.0,10.0,96,-99.99,,,-99.99,,2013-03-15 08:22:00,
2013-03-15 01:31:00,48.0,47.0,30.13,SSE,161,3.0,10.0,96,-99.99,,,-99.99,,2013-03-15 08:31:00,
2013-03-15 01:41:00,48.0,47.0,30.13,SSE,161,3.0,10.0,96,-99.99,,,-99.99,,2013-03-15 08:41:00,
2013-03-15 01:52:00,48.0,47.0,30.13,SSE,158,5.0,12.0,96,-99.99,,,-99.99,,2013-03-15 08:52:00,
2013-03-15 02:02:00,48.0,47.0,30.13,SSE,153,2.0,5.0,96,-99.99,,,-99.99,,2013-03-15 09:02:00,
2013-03-15 02:11:00,48.0,47.0,30.13,SSE,153,2.0,5.0,96,-99.99,,,-99.99,,2013-03-15 09:11:00,
2013-03-15 02:21:00,48.0,47.0,30.14,South,179,1.0,4.0,96,-99.99,,,-99.99,,2013-03-15 09:21:00,
2013-03-15 02:33:00,48.0,47.0,30.14,South,179,1.0,4.0,96,-99.99,,,-99.99,,2013-03-15 09:33:00,
2013-03-15 02:42:00,48.0,47.0,30.14,South,179,1.0,4.0,96,-99.99,,,-99.99,,2013-03-15 09:42:00,
2013-03-15 02:53:00,49.0,48.0,30.14,SSE,161,4.0,10.0,96,-99.99,,,-99.99,,2013-03-15 09:53:00,
2013-03-15 03:02:00,49.0,48.0,30.14,SSE,153,1.0,4.0,95,-99.99,,,-99.99,,2013-03-15 10:02:00,
2013-03-15 03:12:00,49.0,48.0,30.14,SSE,153,1.0,4.0,95,-99.99,,,-99.99,,2013-03-15 10:12:00,
2013-03-15 03:22:00,49.0,48.0,30.14,SSE,167,0.0,5.0,95,-99.99,,,-99.99,,2013-03-15 10:22:00,
2013-03-15 03:32:00,48.0,47.0,30.14,SSE,152,0.0,3.0,95,-99.99,,,-99.99,,2013-03-15 10:32:00,
2013-03-15 03:41:00,48.0,47.0,30.14,SSE,152,0.0,3.0,95,-99.99,,,-99.99,,2013-03-15 10:41:00,
2013-03-15 03:51:00,48.0,47.0,30.14,SSE,162,0.0,2.0,95,-99.99,,,-99.99,,2013-03-15 10:51:00,
2013-03-15 04:02:00,48.0,47.0,30.14,SSE,147,0.0,5.0,96,-99.99,,,-99.99,,2013-03-15 11:02:00,
2013-03-15 04:12:00,48.0,47.0,30.14,SSE,147,0.0,5.0,96,-99.99,,,-99.99,,2013-03-15 11:12:00,
2013-03-15 04:22:00,49.0,48.0,30.14,SSE,157,2.0,9.0,95,-99.99,,,-99.99,,2013-03-15 11:22:00,
2013-03-15 04:32:00,49.0,48.0,30.13,SSW,198,0.0,3.0,95,-99.99,,,-99.99,,2013-03-15 11:32:00,
2013-03-15 04:41:00,49.0,48.0,30.13,SSW,198,0.0,3.0,95,-99.99,,,-99.99,,2013-03-15 11:41:00,
2013-03-15 04:52:00,49.0,48.0,30.13,SSW,198,0.0,1.0,95,-99.99,,,-99.99,,2013-03-15 11:52:00,
2013-03-15 05:01:00,49.0,48.0,30.13,ESE,103,0.0,3.0,95,-99.99,,,-99.99,,2013-03-15 12:01:00,
2013-03-15 05:11:00,49.0,48.0,30.13,SE,134,0.0,1.0,95,-99.99,,,-99.99,,2013-03-15 12:11:00,
2013-03-15 05:21:00,49.0,48.0,30.13,SE,134,0.0,1.0,95,-99.99,,,-99.99,,2013-03-15 12:21:00,
2013-03-15 05:32:00,49.0,48.0,30.13,SE,134,0.0,1.0,95,-99.99,,,-99.99,,2013-03-15 12:32:00,
2013-03-15 05:42:00,49.0,48.0,30.13,SE,134,0.0,1.0,95,-99.99,,,-99.99,,2013-03-15 12:42:00,
2013-03-15 05:52:00,49.0,48.0,30.13,ESE,112,1.0,4.0,95,-99.99,,,-99.99,,2013-03-15 12:52:00,
2013-03-15 06:02:00,49.0,48.0,30.13,SW,232,1.0,5.0,95,-99.99,,,-99.99,,2013-03-15 13:02:00,
2013-03-15 06:12:00,49.0,48.0,30.13,SW,232,1.0,5.0,95,-99.99,,,-99.99,,2013-03-15 13:12:00,
2013-03-15 06:22:00,49.0,47.0,30.14,SSW,206,0.0,5.0,94,-99.99,,,-99.99,,2013-03-15 13:22:00,
2013-03-15 06:31:00,49.0,47.0,30.14,South,170,0.0,7.0,93,-99.99,,,-99.99,,2013-03-15 13:31:00,
2013-03-15 06:41:00,49.0,47.0,30.14,South,170,0.0,7.0,93,-99.99,,,-99.99,,2013-03-15 13:41:00,
2013-03-15 06:52:00,49.0,47.0,30.14,WSW,245,1.0,5.0,93,-99.99,,,-99.99,,2013-03-15 13:52:00,
2013-03-15 07:01:00,49.0,47.0,30.14,SSE,167,3.0,4.0,93,-99.99,,,-99.99,,2013-03-15 14:01:00,
2013-03-15 07:11:00,49.0,47.0,30.14,SSE,167,3.0,4.0,93,-99.99,,,-99.99,,2013-03-15 14:11:00,
2013-03-15 07:22:00,49.0,47.0,30.14,SSE,152,2.0,7.0,93,-99.99,,,-99.99,,2013-03-15 14:22:00,
2013-03-15 07:32:00,49.0,47.0,30.14,SSE,151,1.0,7.0,93,-99.99,,,-99.99,,2013-03-15 14:32:00,
2013-03-15 07:41:00,49.0,47.0,30.14,SSE,151,1.0,7.0,93,-99.99,,,-99.99,,2013-03-15 14:41:00,
2013-03-15 07:52:00,49.0,47.0,30.14,SSE,167,2.0,5.0,93,-99.99,,,-99.99,,2013-03-15 14:52:00,
2013-03-15 08:01:00,49.0,47.0,30.14,South,171,3.0,6.0,93,-99.99,,,-99.99,,2013-03-15 15:01:00,
2013-03-15 08:12:00,49.0,47.0,30.14,South,171,3.0,6.0,93,-99.99,,,-99.99,,2013-03-15 15:12:00,
2013-03-15 08:21:00,49.0,47.0,30.14,SSW,192,0.0,5.0,93,-99.99,,,-99.99,,2013-03-15 15:21:00,
2013-03-15 08:32:00,49.0,47.0,30.15,SSE,155,0.0,9.0,92,-99.99,,,-99.99,,2013-03-15 15:32:00,
2013-03-15 08:42:00,49.0,47.0,30.16,SSW,195,3.0,10.0,92,-99.99,,,-99.99,,2013-03-15 15:42:00,
2013-03-15 08:52:00,49.0,47.0,30.16,SSW,195,3.0,10.0,92,-99.99,,,-99.99,,2013-03-15 15:52:00,
2013-03-15 09:02:00,49.0,46.0,30.16,SSE,161,2.0,4.0,91,-99.99,,,-99.99,,2013-03-15 16:02:00,
2013-03-15 09:12:00,49.0,46.0,30.17,SSE,152,2.0,4.0,91,-99.99,,,-99.99,,2013-03-15 16:12:00,
2013-03-15 09:22:00,49.0,46.0,30.17,SSE,152,2.0,4.0,91,-99.99,,,-99.99,,2013-03-15 16:22:00,
2013-03-15 09:32:00,50.0,47.0,30.17,SSE,152,1.0,5.0,91,-99.99,,,-99.99,,2013-03-15 16:32:00,
2013-03-15 09:41:00,50.0,47.0,30.17,SSE,152,1.0,5.0,91,-99.99,,,-99.99,,2013-03-15 16:41:00,
2013-03-15 09:52:00,50.0,47.0,30.17,SSE,158,3.0,7.0,91,-99.99,,,-99.99,,2013-03-15 16:52:00,
2013-03-15 10:01:00,50.0,47.0,30.19,SSW,201,1.0,6.0,91,-99.99,,,-99.99,,2013-03-15 17:01:00,
2013-03-15 10:11:00,50.0,47.0,30.19,SSW,201,1.0,6.0,91,-99.99,,,-99.99,,2013-03-15 17:11:00,
2013-03-15 10:22:00,50.0,47.0,30.19,SSW,199,2.0,7.0,91,-99.99,,,-99.99,,2013-03-15 17:22:00,
2013-03-15 10:32:00,51.0,48.0,30.19,South,189,1.0,7.0,90,-99.99,,,-99.99,,2013-03-15 17:32:00,
2013-03-15 10:42:00,51.0,48.0,30.19,South,189,1.0,7.0,90,-99.99,,,-99.99,,2013-03-15 17:42:00,
2013-03-15 10:52:00,52.0,49.0,30.19,South,171,0.0,7.0,88,-99.99,,,-99.99,,2013-03-15 17:52:00,
2013-03-15 11:02:00,52.0,48.0,30.19,SSE,168,2.0,7.0,87,-99.99,,,-99.99,,2013-03-15 18:02:00,
2013-03-15 11:11:00,52.0,48.0,30.19,SSE,168,2.0,7.0,87,-99.99,,,-99.99,,2013-03-15 18:11:00,
2013-03-15 11:21:00,53.0,48.0,30.18,South,188,2.0,10.0,84,-99.99,,,-99.99,,2013-03-15 18:21:00,
2013-03-15 11:31:00,54.0,49.0,30.18,South,184,4.0,10.0,82,-99.99,,,-99.99,,2013-03-15 18:31:00,
2013-03-15 11:42:00,54.0,49.0,30.18,South,184,4.0,10.0,82,-99.99,,,-99.99,,2013-03-15 18:42:00,
2013-03-15 11:52:00,53.0,48.0,30.18,SSE,152,4.0,9.0,82,-99.99,,,-99.99,,2013-03-15 18:52:00,
2013-03-15 12:01:00,54.0,49.0,30.17,South,180,3.0,10.0,82,-99.99,,,-99.99,,2013-03-15 19:01:00,
2013-03-15 12:12:00,54.0,49.0,30.17,South,180,3.0,10.0,82,-99.99,,,-99.99,,2013-03-15 19:12:00,
2013-03-15 12:21:00,54.0,48.0,30.17,South,176,3.0,10.0,80,-99.99,,,-99.99,,2013-03-15 19:21:00,
2013-03-15 12:32:00,54.0,48.0,30.17,SSE,153,3.0,9.0,81,-99.99,,,-99.99,,2013-03-15 19:32:00,
2013-03-15 12:41:00,54.0,48.0,30.17,SSE,153,3.0,9.0,81,-99.99,,,-99.99,,2013-03-15 19:41:00,
2013-03-15 12:52:00,54.0,48.0,30.18,SSE,156,2.0,10.0,79,-99.99,,,-99.99,,2013-03-15 19:52:00,
2013-03-15 13:02:00,54.0,47.0,30.18,South,183,2.0,10.0,78,-99.99,,,-99.99,,2013-03-15 20:02:00,
2013-03-15 13:11:00,54.0,47.0,30.18,South,183,2.0,10.0,78,-99.99,,,-99.99,,2013-03-15 20:11:00,
2013-03-15 13:22:00,55.0,48.0,30.18,SSW,213,2.0,12.0,77,-99.99,,,-99.99,,2013-03-15 20:22:00,
2013-03-15 13:31:00,55.0,48.0,30.18,SSE,161,1.0,13.0,76,-99.99,,,-99.99,,2013-03-15 20:31:00,
2013-03-15 13:41:00,55.0,48.0,30.18,SSE,161,1.0,13.0,76,-99.99,,,-99.99,,2013-03-15 20:41:00,
2013-03-15 13:52:00,56.0,49.0,30.18,South,176,4.0,7.0,76,-99.99,,,-99.99,,2013-03-15 20:52:00,
2013-03-15 14:01:00,57.0,48.0,30.17,SW,231,0.0,7.0,73,-99.99,,,-99.99,,2013-03-15 21:01:00,
2013-03-15 14:11:00,57.0,48.0,30.17,SW,231,0.0,7.0,73,-99.99,,,-99.99,,2013-03-15 21:11:00,
2013-03-15 14:21:00,57.0,48.0,30.17,SSE,161,5.0,12.0,72,-99.99,,,-99.99,,2013-03-15 21:21:00,
2013-03-15 14:32:00,57.0,48.0,30.17,WSW,238,1.0,13.0,72,-99.99,,,-99.99,,2013-03-15 21:32:00,
2013-03-15 14:42:00,57.0,48.0,30.17,WSW,238,1.0,13.0,72,-99.99,,,-99.99,,2013-03-15 21:42:00,
2013-03-15 14:52:00,58.0,49.0,30.16,SW,230,2.0,12.0,72,-99.99,,,-99.99,,2013-03-15 21:52:00,
2013-03-15 15:02:00,58.0,49.0,30.16,SSE,158,3.0,12.0,71,-99.99,,,-99.99,,2013-03-15 22:02:00,
2013-03-15 15:12:00,58.0,49.0,30.16,SSE,158,3.0,12.0,71,-99.99,,,-99.99,,2013-03-15 22:12:00,
2013-03-15 15:22:00,59.0,48.0,30.16,WSW,254,1.0,12.0,68,-99.99,,,-99.99,,2013-03-15 22:22:00,
2013-03-15 15:32:00,60.0,49.0,30.15,SW,219,1.0,15.0,67,-99.99,,,-99.99,,2013-03-15 22:32:00,
2013-03-15 15:41:00,60.0,49.0,30.15,SW,219,1.0,15.0,67,-99.99,,,-99.99,,2013-03-15 22:41:00,
2013-03-15 15:52:00,60.0,49.0,30.15,SSW,207,3.0,9.0,66,-99.99,,,-99.99,,2013-03-15 22:52:00,
2013-03-15 16:02:00,59.0,48.0,30.15,SSE,166,6.0,11.0,68,-99.99,,,-99.99,,2013-03-15 23:02:00,
2013-03-15 16:11:00,59.0,48.0,30.15,SSE,166,6.0,11.0,68,-99.99,,,-99.99,,2013-03-15 23:11:00,
2013-03-15 16:21:00,57.0,47.0,30.14,SW,225,3.0,11.0,70,-99.99,,,-99.99,,2013-03-15 23:21:00,
2013-03-15 16:32:00,58.0,48.0,30.14,SSE,158,1.0,10.0,69,-99.99,,,-99.99,,2013-03-15 23:32:00,
2013-03-15 16:42:00,58.0,48.0,30.14,SSE,158,1.0,10.0,69,-99.99,,,-99.99,,2013-03-15 23:42:00,
2013-03-15 16:53:00,58.0,48.0,30.14,South,174,1.0,10.0,69,-99.99,,,-99.99,,2013-03-15 23:53:00,
2013-03-15 17:02:00,57.0,47.0,30.14,SSE,147,2.0,10.0,69,-99.99,,,-99.99,,2013-03-16 00:02:00,
2013-03-15 17:11:00,57.0,47.0,30.14,SSE,147,2.0,10.0,69,-99.99,,,-99.99,,2013-03-16 00:11:00,
2013-03-15 17:22:00,57.0,47.0,30.14,SSE,159,3.0,13.0,69,-99.99,,,-99.99,,2013-03-16 00:22:00,
2013-03-15 17:32:00,56.0,47.0,30.14,SSW,195,2.0,11.0,71,-99.99,,,-99.99,,2013-03-16 00:32:00,
2013-03-15 17:42:00,56.0,47.0,30.14,SSW,195,2.0,11.0,71,-99.99,,,-99.99,,2013-03-16 00:42:00,
2013-03-15 17:52:00,56.0,47.0,30.13,South,174,4.0,7.0,73,-99.99,,,-99.99,,2013-03-16 00:52:00,
2013-03-15 18:02:00,56.0,48.0,30.13,South,175,1.0,10.0,74,-99.99,,,-99.99,,2013-03-16 01:02:00,
2013-03-15 18:12:00,56.0,48.0,30.13,South,175,1.0,10.0,74,-99.99,,,-99.99,,2013-03-16 01:12:00,
2013-03-15 18:21:00,55.0,47.0,30.13,SSW,198,1.0,5.0,75,-99.99,,,-99.99,,2013-03-16 01:21:00,
2013-03-15 18:32:00,55.0,48.0,30.13,SSE,167,3.0,11.0,76,-99.99,,,-99.99,,2013-03-16 01:32:00,
2013-03-15 18:41:00,55.0,48.0,30.13,SSE,167,3.0,11.0,76,-99.99,,,-99.99,,2013-03-16 01:41:00,
2013-03-15 18:52:00,54.0,47.0,30.13,SSE,168,1.0,10.0,77,-99.99,,,-99.99,,2013-03-16 01:52:00,
2013-03-15 19:02:00,54.0,47.0,30.13,South,189,3.0,11.0,77,-99.99,,,-99.99,,2013-03-16 02:02:00,
2013-03-15 19:11:00,54.0,47.0,30.13,South,189,3.0,11.0,77,-99.99,,,-99.99,,2013-03-16 02:11:00,
2013-03-15 19:22:00,54.0,47.0,30.13,South,172,3.0,9.0,77,-99.99,,,-99.99,,2013-03-16 02:22:00,
2013-03-15 19:32:00,53.0,47.0,30.13,SSE,156,6.0,10.0,79,-99.99,,,-99.99,,2013-03-16 02:32:00,
2013-03-15 19:42:00,53.0,47.0,30.13,SSE,156,6.0,10.0,79,-99.99,,,-99.99,,2013-03-16 02:42:00,
2013-03-15 19:52:00,52.0,46.0,30.12,SSE,163,2.0,5.0,79,-99.99,,,-99.99,,2013-03-16 02:52:00,
2013-03-15 20:02:00,52.0,46.0,30.12,SSE,158,2.0,7.0,79,-99.99,,,-99.99,,2013-03-16 03:02:00,
2013-03-15 20:11:00,52.0,46.0,30.12,SSE,158,2.0,7.0,79,-99.99,,,-99.99,,2013-03-16 03:11:00,
2013-03-15 20:21:00,52.0,46.0,30.12,SE,129,0.0,6.0,79,-99.99,,,-99.99,,2013-03-16 03:21:00,
2013-03-15 20:32:00,52.0,46.0,30.13,SSW,192,0.0,6.0,80,-99.99,,,-99.99,,2013-03-16 03:32:00,
2013-03-15 20:42:00,52.0,46.0,30.13,SSW,192,0.0,6.0,80,-99.99,,,-99.99,,2013-03-16 03:42:00,
2013-03-15 20:53:00,52.0,46.0,30.13,South,170,1.0,10.0,80,-99.99,,,-99.99,,2013-03-16 03:53:00,
2013-03-15 21:02:00,51.0,45.0,30.12,South,175,5.0,9.0,81,-99.99,,,-99.99,,2013-03-16 04:02:00,
2013-03-15 21:12:00,51.0,45.0,30.12,South,175,5.0,9.0,81,-99.99,,,-99.99,,2013-03-16 04:12:00,
2013-03-15 21:22:00,51.0,46.0,30.12,SSE,148,0.0,4.0,82,-99.99,,,-99.99,,2013-03-16 04:22:00,
2013-03-15 21:32:00,50.0,45.0,30.12,South,188,0.0,5.0,83,-99.99,,,-99.99,,2013-03-16 04:32:00,
2013-03-15 21:42:00,50.0,45.0,30.12,South,188,0.0,5.0,83,-99.99,,,-99.99,,2013-03-16 04:42:00,
2013-03-15 21:52:00,50.0,45.0,30.12,South,182,0.0,4.0,84,-99.99,,,-99.99,,2013-03-16 04:52:00,
2013-03-15 22:02:00,50.0,45.0,30.13,SSW,200,1.0,5.0,83,-99.99,,,-99.99,,2013-03-16 05:02:00,
2013-03-15 22:12:00,50.0,45.0,30.13,SSW,200,1.0,5.0,83,-99.99,,,-99.99,,2013-03-16 05:12:00,
2013-03-15 22:21:00,50.0,45.0,30.13,SSE,151,1.0,5.0,84,-99.99,,,-99.99,,2013-03-16 05:21:00,
2013-03-15 22:31:00,50.0,45.0,30.13,SSE,165,2.0,9.0,83,-99.99,,,-99.99,,2013-03-16 05:31:00,
2013-03-15 22:42:00,50.0,45.0,30.13,SSE,165,2.0,9.0,83,-99.99,,,-99.99,,2013-03-16 05:42:00,
2013-03-15 22:52:00,49.0,44.0,30.12,South,176,2.0,8.0,83,-99.99,,,-99.99,,2013-03-16 05:52:00,
2013-03-15 23:02:00,49.0,44.0,30.12,SSW,200,0.0,4.0,83,-99.99,,,-99.99,,2013-03-16 06:02:00,
2013-03-15 23:12:00,49.0,44.0,30.12,SSW,200,0.0,4.0,83,-99.99,,,-99.99,,2013-03-16 06:12:00,
2013-03-15 23:21:00,49.0,44.0,30.12,SSW,206,0.0,6.0,83,-99.99,,,-99.99,,2013-03-16 06:21:00,
2013-03-15 23:32:00,49.0,44.0,30.12,South,176,1.0,6.0,83,-99.99,,,-99.99,,2013-03-16 06:32:00,
2013-03-15 23:41:00,49.0,44.0,30.12,South,176,1.0,6.0,83,-99.99,,,-99.99,,2013-03-16 06:41:00,
2013-03-15 23:52:00,48.0,44.0,30.12,WSW,252,1.0,3.0,85,-99.99,,,-99.99,,2013-03-16 06:52:00,